Temperature
4 4 3 4 4 4 4 4 4 4 4 4 4 4 4 4 4 4 4 4 4 4 4 3 3 3 3 3 3 3 2 2 2 2 3 3 3 3 3 3 3 3 3
3 3 3 3 3 3 3 3 3 3 3 4 4 4 4 4 4 3 3 3 3 3 3 3 3 2 2 2 2 2 2 2 2 2 2 2 2 2 2 2 2 2 2
3 3 3 2 2 2 3 3 3 3 3 3 3 3 3 3 3 3 3 3 3 3 2 2 2 2 2 2 2 2 2 1 1 1 1 1 1 1 1 1 2 2 2
2 2 2 2 2 2 2 2 2 2 2 2 2 2 2 2 2 2 2 2 2 2 2 2 1 1 1 1 1 1 1 1 1 1 1 1 1 1 1 1 1 1 1
2 2 2 1 1 1 1 1 1 1 2 2 2 2 1 1 1 1 1 1 1 1 1 1 1 1 1 1 1 1 1 0 0 0 0 0 0 -0 -0 -0 -0 -0 -0
1 1 1 1 1 1 1 1 1 1 1 1 1 1 1 1 1 1 1 0 0 0 0 0 0 0 1 1 1 0 0 -0 -0 -0 -0 -0 -0 -0 -1 -1 -1 -1 -1
1 1 1 1 0 0 0 0 0 0 0 0 0 0 0 0 0 0 0 -0 -0 -0 -0 -0 -0 -0 -0 -0 -0 -0 -0 -0 -0 -1 -1 -1 -1 -1 -1 -1 -1 -1 -1
1 0 0 0 -0 -0 -0 -0 -0 -0 -0 -0 -0 -0 -0 -0 0 0 -0 -0 -0 -0 -0 -0 -1 -1 -1 -1 -1 -1 -1 -1 -1 -1 -1 -1 -1 -1 -1 -2 -2 -2 -2
0 0 -0 -0 -0 -1 -1 -1 -1 -1 -1 -1 -1 -1 -1 -1 -1 -0 -1 -1 -1 -1 -1 -1 -1 -1 -1 -1 -1 -1 -1 -1 -2 -2 -2 -2 -2 -2 -2 -2 -2 -2 -2
-0 -0 -0 -1 -1 -1 -1 -1 -1 -1 -1 -1 -2 -1 -1 -1 -1 -1 -1 -2 -2 -2 -2 -1 -1 -1 -2 -2 -2 -2 -2 -2 -2 -2 -2 -2 -2 -2 -2 -2 -3 -3 -3
-0 -1 -1 -1 -1 -1 -2 -2 -2 -2 -2 -2 -2 -2 -2 -2 -2 -2 -2 -2 -2 -2 -2 -2 -2 -2 -2 -2 -2 -3 -3 -3 -2 -3 -3 -3 -3 -3 -3 -3 -3 -3 -3
-1 -1 -1 -1 -2 -2 -2 -2 -2 -2 -2 -2 -3 -3 -3 -3 -3 -2 -3 -3 -3 -3 -3 -3 -3 -3 -3 -3 -3 -3 -3 -3 -3 -3 -3 -3 -3 -3 -3 -3 -3 -3 -4
-1 -1 -2 -2 -2 -2 -2 -3 -3 -3 -3 -3 -3 -3 -3 -3 -3 -3 -3 -3 -3 -4 -4 -4 -4 -3 -3 -3 -3 -4 -4 -4 -4 -4 -4 -4 -4 -4 -4 -4 -4 -4 -4
-2 -2 -2 -2 -2 -3 -3 -3 -3 -3 -4 -4 -4 -4 -4 -4 -4 -4 -4 -4 -4 -4 -4 -4 -4 -4 -4 -4 -4 -4 -4 -4 -4 -5 -5 -4 -4 -4 -4 -4 -4 -4 -4
-2 -2 -3 -3 -3 -3 -3 -3 -4 -4 -4 -4 -4 -4 -5 -5 -5 -5 -5 -5 -5 -5 -5 -5 -5 -5 -5 -5 -5 -5 -5 -5 -5 -5 -5 -5 -5 -5 -5 -5 -5 -5 -5
-3 -3 -3 -3 -3 -4 -4 -4 -4 -4 -4 -4 -4 -5 -5 -5 -5 -5 -5 -5 -5 -5 -5 -5 -5 -5 -5 -5 -5 -5 -5 -6 -6 -6 -6 -5 -5 -5 -5 -5 -5 -5 -5
-3 -3 -4 -4 -4 -4 -4 -4 -4 -4 -5 -5 -5 -5 -5 -5 -5 -5 -5 -5 -5 -5 -6 -6 -6 -6 -6 -6 -6 -6 -6 -6 -6 -6 -6 -6 -6 -6 -6 -6 -6 -6 -6
-4 -4 -4 -4 -4 -4 -5 -5 -5 -5 -5 -5 -5 -5 -5 -6 -6 -6 -6 -6 -6 -6 -6 -6 -6 -6 -6 -6 -6 -6 -6 -6 -6 -6 -6 -6 -6 -6 -6 -6 -6 -6 -6
-4 -4 -4 -4 -5 -5 -5 -5 -5 -5 -5 -5 -5 -6 -6 -6 -6 -6 -6 -6 -6 -6 -6 -6 -6 -6 -6 -7 -7 -7 -7 -7 -7 -7 -7 -7 -7 -7 -6 -6 -6 -7 -7
-4 -4 -4 -5 -5 -5 -5 -6 -6 -6 -6 -6 -6 -6 -6 -6 -6 -6 -6 -6 -7 -7 -7 -7 -7 -7 -7 -7 -7 -7 -7 -7 -7 -7 -7 -7 -7 -7 -7 -7 -7 -7 -7
-4 -5 -5 -5 -5 -6 -6 -6 -6 -6 -6 -6 -6 -6 -7 -7 -7 -7 -7 -7 -7 -7 -7 -7 -7 -7 -7 -7 -7 -7 -7 -7 -7 -7 -7 -7 -7 -7 -7 -7 -7 -7 -7
-5 -5 -5 -6 -6 -6 -6 -6 -6 -6 -6 -7 -7 -7 -7 -7 -7 -7 -7 -7 -7 -7 -7 -7 -7 -7 -7 -7 -7 -7 -7 -7 -7 -8 -8 -8 -8 -8 -8 -8 -8 -8 -8
-5 -5 -5 -6 -6 -6 -6 -6 -7 -7 -7 -7 -7 -7 -7 -7 -7 -7 -7 -7 -7 -7 -7 -7 -7 -7 -7 -7 -7 -7 -7 -8 -8 -8 -8 -8 -8 -8 -8 -8 -8 -8 -8
-5 -5 -5 -6 -6 -6 -6 -7 -7 -7 -7 -7 -7 -7 -7 -7 -7 -7 -7 -7 -7 -7 -8 -8 -8 -8 -7 -8 -8 -8 -8 -8 -8 -8 -8 -8 -8 -8 -8 -8 -8 -8 -8
-5 -5 -6 -6 -6 -6 -6 -7 -7 -7 -7 -7 -7 -7 -7 -7 -7 -8 -8 -8 -8 -8 -8 -8 -8 -8 -8 -8 -8 -8 -8 -8 -8 -8 -8 -8 -8 -8 -8 -8 -8 -8 -8
-6 -6 -6 -6 -6 -6 -7 -7 -7 -7 -7 -7 -7 -8 -8 -8 -8 -8 -8 -8 -8 -8 -8 -8 -8 -8 -8 -8 -8 -8 -8 -8 -8 -8 -8 -9 -9 -8 -8 -8 -8 -9 -9
Wind_Speed
1 1 1 1 0 1 0 0 0 0 0 1 1 1 2 2 3 3 3 3 4 4 4 5 5 5 4 4 4 4 5 5 7 6 5 5 6 6 6 7 7 7 7
1 1 1 1 0 0 0 0 1 1 1 1 2 2 2 3 3 4 4 4 4 5 5 5 6 5 6 5 5 5 6 6 7 8 7 6 6 6 7 7 6 7 7
1 1 1 1 1 1 1 1 1 1 2 2 2 3 3 4 4 4 5 5 5 5 5 6 6 6 6 5 6 6 5 5 6 7 7 6 6 5 6 6 6 6 7
2 2 2 2 2 2 1 1 1 2 2 2 3 3 4 4 4 4 4 5 5 5 6 6 6 7 7 7 6 7 6 6 6 6 6 6 6 5 5 5 6 6 6
3 3 2 2 2 2 2 2 2 2 3 3 3 4 4 4 4 4 4 5 6 6 6 6 7 7 8 8 7 7 7 6 6 6 7 6 6 5 5 5 6 6 6
3 3 2 2 2 2 2 2 2 3 3 3 3 4 4 4 5 6 6 6 6 6 7 7 7 8 9 10 11 10 9 8 8 8 7 8 8 7 6 6 6 6 6
3 3 3 3 3 3 2 3 3 3 3 4 4 4 5 5 6 7 8 6 6 7 7 7 6 6 8 8 9 10 10 11 11 10 10 10 9 7 7 7 7 7 8
4 3 3 3 3 3 3 3 3 3 4 4 5 5 5 6 7 8 8 7 7 7 7 7 8 8 7 7 8 8 8 8 9 8 9 9 8 7 7 7 7 7 7
4 4 4 4 4 4 4 4 4 4 4 4 5 6 6 6 7 8 7 6 6 7 7 8 8 8 9 8 8 8 8 7 7 9 10 10 10 10 7 5 5 5 6
5 4 4 4 5 5 5 4 4 4 5 5 5 6 6 7 7 8 7 5 6 6 6 7 8 9 9 9 8 7 8 7 6 6 7 7 8 8 8 7 6 6 5
4 4 4 5 5 5 5 4 4 4 5 5 6 6 6 7 7 8 8 5 6 6 6 6 6 8 9 9 8 7 8 7 6 6 6 5 5 5 5 5 5 6 6
4 4 4 4 4 4 5 5 5 5 5 5 5 5 5 5 7 7 9 8 7 7 6 6 6 8 10 10 8 8 8 6 4 4 5 5 5 5 4 5 5 6 6
4 4 4 4 4 4 4 5 4 4 4 4 4 5 5 5 5 8 9 9 8 7 6 8 9 9 9 7 8 8 6 4 4 5 5 5 5 4 4 4 4 4 5
5 4 4 4 4 4 4 4 4 4 4 5 5 5 5 5 5 5 5 6 6 6 6 6 7 7 6 7 7 5 4 4 5 5 5 4 4 4 4 4 4 4 4
5 4 4 4 4 4 4 4 5 6 6 6 5 5 6 6 6 8 7 6 5 5 5 4 4 4 4 4 4 3 3 3 4 4 4 4 4 4 4 4 4 4 4
5 5 4 4 4 4 4 4 6 8 8 9 9 8 7 9 10 10 9 9 7 6 5 4 5 4 5 4 4 4 4 4 4 4 4 4 4 4 4 4 4 4 5
5 5 4 4 4 4 4 5 5 5 7 8 9 10 10 10 10 10 9 8 7 6 4 4 5 5 5 5 4 4 4 4 4 4 4 4 4 4 4 4 4 4 4
6 6 5 4 5 5 5 5 5 5 5 5 6 8 9 10 10 10 8 6 5 4 4 5 5 5 5 5 5 4 4 4 4 4 4 4 4 4 4 5 4 5 4
5 4 4 4 5 5 5 5 5 5 6 5 5 5 7 8 9 9 7 5 5 5 5 5 5 5 5 5 5 5 5 4 4 4 4 4 4 4 5 5 5 5 5
5 6 5 4 4 5 5 5 5 5 5 6 6 5 5 5 5 5 5 5 5 6 5 6 5 5 5 5 5 5 5 5 5 4 4 4 4 4 5 5 5 4 4
4 5 6 5 5 5 5 5 5 5 6 6 6 6 7 5 6 6 6 6 6 6 6 5 5 5 5 5 5 5 6 5 5 4 4 4 4 4 4 4 4 4 4
4 4 4 4 5 5 5 5 5 6 6 7 6 6 8 6 6 6 6 6 6 5 5 5 5 5 5 5 5 5 6 6 5 5 5 4 4 4 4 4 4 4 4
4 4 4 4 4 6 6 5 5 6 6 6 6 5 5 5 5 6 6 6 5 5 5 5 5 5 5 5 6 6 6 6 5 5 5 5 4 4 4 4 5 5 4
4 4 4 4 4 5 5 5 5 5 6 6 5 5 5 5 5 6 6 5 5 5 5 5 5 6 7 6 6 6 6 6 6 6 6 5 5 4 5 5 5 5 4
3 3 4 4 4 4 4 5 5 5 5 5 5 5 5 5 5 5 5 5 5 5 5 5 5 5 7 7 7 7 8 9 8 6 5 5 5 5 5 5 4 4 4
3 3 3 3 3 4 4 4 4 4 4 4 4 5 5 5 5 5 5 5 4 5 5 5 6 6 7 7 7 8 8 8 8 7 5 4 5 5 5 4 5 4 4
Wind_Direction
196 182 175 181 135 106 138 244 283 320 277 280 277 290 282 277 272 248 238 234 236 238 236 242 246 250 251 251 252 250 251 252 265 279 282 276 271 276 283 283 284 284 281
216 192 184 186 173 182 280 303 297 292 293 287 281 276 276 268 268 256 248 242 241 243 245 246 248 249 250 251 250 250 252 252 259 273 281 285 279 277 279 282 286 282 281
213 204 199 209 224 244 266 278 272 278 285 281 280 275 276 270 267 257 255 253 249 247 250 251 251 249 251 252 252 254 256 258 258 266 276 283 283 279 284 285 286 285 284
202 206 216 234 245 251 262 269 276 276 275 276 278 279 278 274 266 260 258 260 257 254 254 254 254 251 252 254 254 255 257 259 260 261 269 277 280 281 279 283 289 288 284
210 211 221 234 244 249 255 262 268 272 275 279 281 281 278 274 265 266 265 264 261 259 259 257 255 257 259 258 257 257 257 258 259 261 265 272 273 274 271 276 279 288 286
221 223 224 228 234 240 248 255 259 265 270 274 274 276 274 273 276 270 270 266 262 259 260 260 259 256 257 258 259 260 258 255 256 259 262 263 268 271 273 272 275 283 283
222 225 226 232 239 246 253 255 259 267 272 272 275 276 276 275 274 271 269 268 263 260 261 262 264 263 261 260 260 259 257 258 258 261 263 264 269 268 265 266 269 274 276
226 231 230 235 246 256 259 263 270 273 273 276 278 277 278 278 278 276 275 268 264 261 261 261 264 265 263 265 264 262 260 259 260 260 264 268 269 269 268 270 272 278 278
229 234 235 236 242 249 256 263 268 270 273 277 278 277 278 283 282 283 280 270 264 264 263 262 262 264 267 267 263 261 265 268 264 263 270 272 271 265 262 268 265 267 276
232 236 235 236 239 246 254 259 262 264 268 273 276 276 277 280 284 284 281 270 268 270 270 267 260 263 269 267 261 258 262 271 275 274 271 266 263 252 245 246 250 256 269
236 236 235 236 240 246 252 255 258 262 268 273 276 278 278 282 284 284 280 272 271 273 273 272 268 267 268 270 269 262 269 279 273 270 271 270 267 258 254 254 251 252 258
228 230 233 235 238 241 246 253 255 259 265 271 275 281 282 284 283 284 282 279 281 274 272 273 272 268 269 268 268 270 275 275 269 267 267 265 265 265 266 267 267 267 264
224 231 233 235 237 240 244 250 254 256 261 269 273 279 284 286 286 285 282 280 280 278 278 280 280 277 276 269 267 268 266 262 261 263 264 270 275 275 275 277 277 272 275
222 228 231 232 237 239 243 246 250 253 258 264 268 275 281 282 283 288 285 282 280 280 282 282 280 278 274 273 269 261 255 257 260 263 268 275 280 274 269 270 272 273 279
222 226 229 232 238 242 245 248 251 252 256 260 264 269 275 278 283 293 294 290 289 287 291 283 280 279 274 272 270 266 263 260 263 267 269 272 271 268 271 272 269 268 267
220 225 228 230 235 242 249 258 253 254 266 266 269 272 276 279 289 290 290 292 294 295 286 274 272 271 272 272 270 269 265 262 266 267 265 265 266 267 272 271 266 264 265
223 227 230 232 235 241 246 254 266 262 256 262 266 271 274 282 288 287 286 285 281 282 274 272 270 268 270 270 267 267 268 270 269 264 264 265 266 267 267 268 266 266 268
224 228 231 234 237 241 245 250 255 264 271 271 268 269 274 277 280 286 285 282 271 264 265 267 268 269 268 267 266 266 267 268 264 263 264 264 262 263 264 264 261 263 268
221 224 227 234 238 242 246 250 253 258 263 271 275 272 272 275 273 273 271 263 262 263 264 265 265 265 265 264 264 264 263 262 263 263 262 260 260 259 261 262 262 260 264
225 228 229 233 236 239 243 248 252 256 260 263 266 270 276 275 269 267 259 258 258 261 263 265 265 263 262 262 260 259 258 258 257 257 259 259 259 258 260 262 259 258 262
224 223 228 234 235 238 242 246 250 253 257 261 263 266 267 266 267 267 263 261 260 263 265 265 264 263 260 260 259 256 253 253 252 253 255 257 257 260 263 263 260 260 262
222 224 227 234 238 240 245 247 249 252 255 259 265 267 265 261 263 263 263 265 267 266 267 266 264 261 257 257 257 256 253 252 251 251 253 255 256 256 259 259 258 258 255
218 223 229 235 240 246 249 249 249 251 254 257 261 262 259 258 261 263 265 268 269 268 267 264 264 264 261 256 255 254 251 250 249 250 250 252 254 256 258 257 254 255 252
218 223 231 238 241 243 247 250 250 252 254 256 255 256 258 261 264 266 267 267 267 268 266 263 262 265 267 266 263 258 255 255 251 246 247 249 254 257 258 254 250 249 248
224 230 236 241 243 247 250 250 251 252 253 254 255 258 261 263 266 268 268 266 268 268 268 268 266 264 266 269 267 264 262 265 262 253 247 244 245 246 249 250 244 244 242
232 238 244 248 248 250 251 253 254 256 258 259 257 258 260 262 265 269 270 269 270 272 271 268 268 270 273 271 268 268 269 267 262 260 250 242 241 242 243 242 238 236 236
Height
1479 1479 1480 1480 1481 1481 1482 1482 1483 1483 1483 1484 1484 1484 1485 1485 1485 1485 1486 1486 1486 1486 1487 1487 1487 1487 1487 1487 1487 1487 1486 1486 1484 1482 1482 1481 1480 1479 1478 1477 1475 1474 1473
1477 1477 1478 1478 1478 1479 1479 1479 1480 1480 1480 1481 1481 1480 1481 1481 1481 1481 1482 1482 1482 1482 1482 1482 1483 1483 1483 1483 1482 1482 1481 1481 1480 1478 1477 1476 1475 1474 1473 1472 1471 1469 1468
1476 1476 1476 1476 1476 1476 1477 1477 1477 1477 1477 1477 1477 1477 1477 1478 1477 1477 1478 1478 1477 1477 1478 1478 1478 1478 1478 1478 1478 1477 1477 1476 1475 1474 1472 1471 1470 1470 1468 1467 1466 1465 1463
1473 1474 1474 1474 1474 1474 1474 1474 1474 1474 1474 1474 1474 1473 1474 1474 1473 1473 1473 1473 1473 1473 1473 1473 1473 1472 1472 1473 1472 1472 1472 1471 1470 1469 1468 1467 1466 1465 1464 1462 1461 1460 1459
1471 1471 1471 1471 1471 1471 1471 1471 1471 1471 1471 1470 1470 1469 1469 1469 1469 1469 1469 1468 1468 1468 1468 1468 1468 1467 1467 1467 1467 1467 1466 1466 1465 1464 1463 1462 1461 1460 1459 1458 1457 1455 1454
1468 1468 1468 1468 1468 1468 1468 1467 1467 1467 1467 1466 1466 1466 1465 1465 1465 1465 1465 1464 1464 1463 1463 1462 1462 1462 1462 1462 1461 1461 1461 1461 1460 1459 1458 1457 1456 1456 1455 1454 1452 1450 1449
1465 1465 1465 1465 1465 1465 1464 1464 1464 1463 1463 1463 1462 1462 1461 1461 1461 1460 1460 1460 1459 1458 1458 1457 1457 1456 1456 1456 1455 1455 1455 1455 1455 1454 1453 1452 1451 1450 1450 1449 1447 1446 1445
1462 1462 1462 1462 1461 1461 1461 1460 1460 1460 1459 1459 1458 1458 1457 1457 1456 1456 1455 1455 1454 1454 1453 1452 1452 1451 1451 1450 1450 1449 1449 1448 1448 1448 1448 1446 1446 1445 1445 1444 1443 1441 1440
1459 1459 1459 1458 1458 1458 1457 1457 1456 1456 1455 1455 1454 1453 1453 1452 1452 1451 1450 1450 1449 1448 1448 1447 1446 1446 1445 1445 1445 1444 1443 1443 1442 1442 1441 1440 1439 1439 1439 1439 1437 1436 1434
1455 1455 1455 1455 1455 1454 1454 1453 1453 1452 1451 1451 1450 1449 1448 1448 1447 1446 1446 1445 1444 1443 1443 1442 1441 1441 1440 1440 1439 1438 1437 1437 1437 1436 1435 1434 1434 1433 1433 1433 1432 1431 1430
1451 1451 1451 1451 1451 1451 1450 1450 1449 1448 1448 1447 1446 1445 1444 1443 1442 1442 1441 1441 1440 1438 1438 1437 1436 1436 1435 1435 1434 1434 1433 1432 1431 1430 1429 1429 1428 1428 1428 1427 1427 1426 1425
1447 1447 1447 1447 1447 1446 1446 1446 1445 1444 1443 1443 1442 1441 1440 1439 1438 1437 1437 1436 1435 1434 1433 1432 1431 1431 1430 1429 1429 1428 1428 1427 1426 1425 1424 1423 1423 1422 1422 1421 1421 1421 1420
1443 1443 1443 1442 1442 1442 1442 1441 1441 1440 1439 1438 1438 1437 1435 1435 1434 1433 1432 1432 1430 1430 1429 1428 1427 1426 1425 1424 1424 1423 1423 1422 1421 1420 1419 1418 1418 1417 1416 1416 1415 1415 1414
1438 1438 1438 1438 1438 1438 1437 1437 1437 1436 1435 1434 1434 1433 1431 1431 1430 1429 1428 1427 1426 1425 1424 1423 1422 1420 1420 1419 1419 1418 1418 1417 1416 1415 1414 1413 1413 1412 1411 1411 1410 1410 1409
1434 1434 1434 1434 1434 1433 1433 1433 1432 1432 1431 1430 1429 1429 1428 1426 1426 1425 1424 1423 1422 1421 1419 1418 1417 1416 1415 1414 1414 1413 1413 1412 1412 1411 1410 1409 1408 1407 1407 1406 1406 1405 1404
1430 1430 1430 1430 1430 1429 1429 1428 1427 1427 1427 1426 1425 1424 1423 1422 1421 1421 1420 1419 1418 1417 1416 1414 1413 1412 1411 1410 1409 1409 1408 1408 1407 1406 1405 1404 1404 1403 1402 1402 1401 1401 1400
1426 1426 1426 1426 1425 1425 1424 1423 1423 1423 1422 1421 1420 1419 1419 1418 1417 1416 1415 1414 1414 1413 1412 1410 1409 1408 1407 1406 1405 1404 1404 1403 1402 1402 1401 1400 1399 1399 1398 1397 1397 1396 1396
1422 1422 1422 1421 1421 1420 1420 1419 1418 1417 1417 1416 1415 1415 1414 1413 1412 1411 1411 1410 1409 1408 1407 1406 1405 1404 1403 1402 1401 1400 1400 1399 1398 1397 1397 1396 1395 1395 1394 1393 1393 1392 1392
1417 1417 1417 1417 1416 1416 1415 1414 1414 1413 1412 1411 1410 1410 1409 1408 1408 1407 1406 1405 1404 1403 1402 1401 1400 1399 1399 1398 1397 1396 1395 1395 1394 1393 1393 1392 1391 1391 1390 1389 1389 1388 1388
1413 1413 1413 1412 1412 1411 1411 1410 1409 1408 1408 1407 1406 1405 1404 1403 1403 1402 1401 1400 1399 1399 1398 1397 1396 1395 1394 1394 1393 1392 1391 1391 1390 1389 1389 1388 1387 1387 1386 1386 1385 1384 1384
1408 1408 1408 1408 1407 1407 1406 1405 1405 1404 1403 1402 1401 1400 1400 1399 1398 1397 1396 1395 1395 1394 1393 1392 1392 1391 1390 1389 1389 1388 1387 1386 1386 1385 1384 1384 1383 1383 1382 1382 1381 1381 1380
1404 1404 1404 1403 1403 1402 1401 1401 1400 1399 1398 1397 1396 1396 1395 1394 1393 1392 1392 1391 1390 1389 1388 1388 1387 1386 1386 1385 1384 1384 1383 1382 1382 1381 1380 1380 1379 1379 1378 1378 1377 1377 1377
1400 1400 1399 1399 1398 1397 1397 1396 1395 1394 1393 1393 1392 1391 1390 1390 1389 1388 1387 1386 1385 1385 1384 1383 1382 1382 1381 1380 1380 1379 1378 1378 1378 1377 1376 1376 1375 1375 1375 1374 1374 1373 1373
1396 1396 1395 1395 1394 1393 1392 1391 1390 1389 1389 1388 1387 1387 1386 1385 1384 1383 1383 1382 1381 1380 1380 1379 1378 1377 1376 1376 1375 1375 1374 1374 1373 1373 1373 1372 1372 1371 1371 1371 1370 1370 1370
1393 1392 1391 1390 1390 1388 1387 1386 1386 1385 1384 1383 1383 1382 1381 1381 1380 1379 1379 1378 1377 1376 1375 1375 1373 1373 1372 1371 1371 1370 1370 1369 1369 1369 1368 1368 1368 1367 1367 1367 1366 1366 1366
1389 1389 1388 1387 1385 1384 1383 1382 1382 1381 1380 1379 1379 1378 1377 1376 1376 1375 1374 1374 1373 1372 1371 1370 1369 1368 1368 1367 1366 1366 1365 1365 1365 1364 1364 1364 1364 1363 1363 1363 1363 1363 1363